Regional Weather Roundup
Issued by NWS

Home | Current Version | Previous Version | Text Only | Print | Product List | Glossary Off
Versions: 1 2 3 4 5 6 7 8 9 10 11 12 13 14 15 16 17 18 19 20 21 22 23 24 25 26 27 28 29 30 31 32 33 34 35 36 37 38 39 40 41 42 43 44 45 46 47 48 49 50

000
ASUS43 KOAX 271810
RWRNE

WEATHER ROUNDUP FOR NEBRASKA
NATIONAL WEATHER SERVICE OMAHA NE
1200 PM CST THU NOV 27 2014

NOTES: SATELLITE DATA IS BEING USED TO AUGMENT CLOUD COVER ABOVE
       12000 FEET.
       "FAIR" INDICATES FEW OR NO CLOUDS BELOW 12,000 FEET WITH NO
       SIGNIFICANT WEATHER AND/OR OBSTRUCTIONS TO VISIBILITY.

  * THESE STATIONS DO NOT REPORT WEATHER SUCH AS RAIN...SNOW OR FOG.

NEZ001>004-019>022-054>056-271900-
NEBRASKA PANHANDLE

CITY           SKY/WX    TMP DP  RH WIND       PRES   REMARKS
SCOTTSBLUFF    CLOUDY    29  25  85 SE3       30.10F
6HR MIN TEMP:  10; 6HR MAX TEMP:  29;

ALLIANCE       CLOUDY    41  34  76 S5        30.08F
6HR MIN TEMP:  14; 6HR MAX TEMP:  41;

CHADRON        MOSUNNY  N/A N/A N/A W5        30.05F
KIMBALL        CLOUDY    46  29  50 NW3       30.12F
SIDNEY         PTSUNNY   46  30  53 SW13      30.13F
6HR MIN TEMP:  20; 6HR MAX TEMP:  46;

$$

NEZ057>060-069>072-079>082-271900-
SOUTHWEST NEBRASKA

CITY           SKY/WX    TMP DP  RH WIND       PRES   REMARKS
NORTH PLATTE   MOSUNNY   36  20  52 S13       30.19F WCI  27
6HR MIN TEMP:  17; 6HR MAX TEMP:  36;

IMPERIAL       SUNNY     41  30  65 S6        30.18F
6HR MIN TEMP:  17; 6HR MAX TEMP:  41;

LEXINGTON      SUNNY     36  21  53 S17       30.25F WCI  26
MCCOOK         SUNNY     44  22  41 S10       30.21F
6HR MIN TEMP:  17; 6HR MAX TEMP:  44;

OGALLALA       MOSUNNY   36  32  86 SW6       30.16F WCI  31
$$

NEZ005>010-023>029-035>040-094-271900-
NORTH CENTRAL NEBRASKA

CITY           SKY/WX    TMP DP  RH WIND       PRES   REMARKS
VALENTINE      PTSUNNY   31  19  61 S13       30.15F WCI  21
6HR MIN TEMP:  20; 6HR MAX TEMP:  31;

AINSWORTH      CLOUDY    30  18  62 S14G21    30.17F WCI  19
BROKEN BOW     PTSUNNY   35  20  54 S18G26    30.22F WCI  24
6HR MIN TEMP:  17; 6HR MAX TEMP:  36;

O`NEILL        CLOUDY    25  15  65 SE18      30.26F WCI  11
ORD            PTSUNNY   28  13  53 SE15G21   30.27F WCI  16
6HR MIN TEMP:  17; 6HR MAX TEMP:  28;

THEDFORD       PTSUNNY   35  22  60 S14G20    30.15F WCI  25
$$

NEZ041-046>049-061>064-073>077-083>087-271900-
SOUTH CENTRAL NEBRASKA

CITY           SKY/WX    TMP DP  RH WIND       PRES   REMARKS
GRAND ISLAND   SUNNY     30  12  47 SE14      30.35F WCI  19
6HR MIN TEMP:  16; 6HR MAX TEMP:  30;

AURORA         SUNNY     29  12  49 S13       30.36F WCI  19
HASTINGS       SUNNY     31  14  49 S12G21    30.32F WCI  22
6HR MIN TEMP:  17; 6HR MAX TEMP:  31;

HEBRON         SUNNY     32  11  41 S9        30.41F WCI  24
HOLDREGE       SUNNY     34  19  53 S21G26    30.26F WCI  23
KEARNEY *      SUNNY     34  18  51 SE20G28   30.29F WCI  22
YORK           SUNNY     28  12  50 S13       30.40F WCI  18
$$

NEZ011>018-030>034-042>045-271900-
NORTHEAST NEBRASKA

CITY           SKY/WX    TMP DP  RH WIND       PRES   REMARKS
NORFOLK        PTSUNNY   20  12  71 SE13      30.39F WCI   7
6HR MIN TEMP:  15; 6HR MAX TEMP:  21;

ALBION         MOSUNNY   26  12  56 SE17      30.36F WCI  13
BLAIR          CLOUDY    19   6  57 SE6       30.46F WCI  11
COLUMBUS *     SUNNY     25  12  58 SE9       30.43F WCI  15
FREMONT        CLOUDY    20   9  63 SE8       30.47F WCI  10
TEKAMAH        CLOUDY    16  -3  43 SE7       30.50F WCI   6
6HR MIN TEMP:  11; 6HR MAX TEMP:  16;

WAYNE          CLOUDY    15   7  70 SE12      30.44F WCI   2
$$

NEZ050>053-065>068-078-088>093-271900-
SOUTHEAST NEBRASKA

CITY           SKY/WX    TMP DP  RH WIND       PRES   REMARKS
LINCOLN        SUNNY     26  11  52 S7        30.47F WCI  18
6HR MIN TEMP:  16; 6HR MAX TEMP:  26;

OMAHA EPPLEY   CLOUDY    18   1  47 SE3       30.52F
6HR MIN TEMP:  16; 6HR MAX TEMP:  18;

BEATRICE       SUNNY     28  15  59 SE8       30.44F WCI  19
FALLS CITY     PTSUNNY   27   9  46 E6        30.49F WCI  20
6HR MIN TEMP:  20; 6HR MAX TEMP:  28;

NEBRASKA CITY  CLOUDY    23   9  54 E3        30.49F
PLATTSMOUTH    CLOUDY    19   9  63 E3        30.49F
$$

NEZ044-045-051>053-067-271900-
OMAHA AREA

CITY           SKY/WX    TMP DP  RH WIND       PRES   REMARKS
OMAHA EPPLEY   CLOUDY    18   1  47 SE3       30.52F
6HR MIN TEMP:  16; 6HR MAX TEMP:  18;

BLAIR          CLOUDY    19   6  57 SE6       30.46F WCI  11
FREMONT        CLOUDY    20   9  63 SE8       30.47F WCI  10
MILLARD        CLOUDY    20  11  67 E6        30.49F WCI  13
OFFUTT AFB     PTSUNNY   19   6  57 E5        30.49F WCI  12
PLATTSMOUTH    CLOUDY    19   9  63 E3        30.49F
WAHOO          CLOUDY    22  14  70 SE9       30.47F WCI  12
$$



USA.gov is the U.S. government's official web portal to all federal, state and local government web resources and services.